Whiting Fld NAS, FL

9:39 AM CST on November 20, 2019 (GMT -0600)
Whiting Field Naval Air Station (North)

Weather History for KNSE - September, 2019

Change the Weather History Date:

Monday, September 30, 2019

  Actual Average Record
Temperature  
Mean Temperature 82 °F -  
Max Temperature 97 °F 80 °F 97 °F (2019)
Min Temperature 70 °F 63 °F 53 °F (2003)
Cooling Degree Days 18    
Growing Degree Days 32 (Base 50)    
Moisture  
Dew Point 69 °F    
Average Humidity 68    
Maximum Humidity 100    
Minimum Humidity 38    
Precipitation  
Precipitation 0.00 in - - ()
Sea Level Pressure  
Sea Level Pressure 30.04 in    
Wind  
Wind Speed 4 mph (South)    
Max Wind Speed 9 mph    
Max Gust Speed -    
Visibility 9 miles    
Events Fog    
Averages and records for this station are not official NWS values.
T = Trace of Precipitation, MM = Missing Value Source: NWS Daily Summary

Daily Weather History Graph

Daily Weather History Graph

Search for Another Location

Airport or City:

Astronomy

Sep. 30, 2019 Rise Set
Actual Time 6:40 AM CDT 6:34 PM CDT
Civil Twilight 6:16 AM CDT 6:58 PM CDT
Nautical Twilight 5:48 AM CDT 7:26 PM CDT
Astronomical Twilight 5:20 AM CDT 7:54 PM CDT
Moon 8:38 AM CDT (9/30) 8:18 PM CDT (9/30)
Length of Visible Light 12h 41m
Length of Day
11h 53m
Waxing Crescent, 6% of the Moon is Illuminated
Sep 30
Waxing Crescent
Oct 5
First Quarter
Oct 13
Full
Oct 21
Last Quarter
Oct 27
New

Hourly Weather History & Observations

Time (CDT) Temp. Heat Index Dew Point Humidity Pressure Visibility Wind Dir Wind Speed Gust Speed Precip Events Conditions
4:56 AM 70.0 °F - 70.0 °F 100% 30.06 in 5.0 mi NNE 3.5 mph - N/A   Clear
5:56 AM 71.1 °F - 70.0 °F 96% 30.07 in 6.0 mi Calm Calm - N/A   Clear
6:56 AM 70.0 °F - 70.0 °F 100% 30.09 in 7.0 mi Calm Calm - N/A Fog Shallow Fog
7:56 AM 73.0 °F - 72.0 °F 96% 30.10 in 9.0 mi NNE 4.6 mph - N/A   Clear
8:56 AM 80.1 °F 83.8 °F 72.0 °F 76% 30.10 in 10.0 mi ENE 5.8 mph - N/A   Clear
9:56 AM 84.9 °F 90.7 °F 72.0 °F 65% 30.10 in 10.0 mi Variable 3.5 mph - N/A   Partly Cloudy
10:56 AM 88.0 °F 92.9 °F 70.0 °F 55% 30.10 in 10.0 mi SE 6.9 mph - N/A   Partly Cloudy
11:56 AM 91.0 °F 95.2 °F 68.0 °F 47% 30.09 in 10.0 mi Variable 4.6 mph - N/A   Scattered Clouds
12:56 PM 93.9 °F 99.1 °F 69.1 °F 44% 30.06 in 10.0 mi ESE 8.1 mph - N/A   Scattered Clouds
1:56 PM 95.0 °F 99.0 °F 66.9 °F 40% 30.03 in 10.0 mi Variable 5.8 mph - N/A   Scattered Clouds
2:56 PM 95.0 °F 97.9 °F 66.0 °F 38% 30.00 in 10.0 mi SE 8.1 mph - N/A   Scattered Clouds
3:56 PM 93.9 °F 100.3 °F 70.0 °F 46% 29.99 in 10.0 mi SSW 6.9 mph - N/A   Scattered Clouds
4:56 PM 91.9 °F 95.9 °F 68.0 °F 45% 29.99 in 10.0 mi South 9.2 mph - N/A   Scattered Clouds
5:56 PM 88.0 °F 89.6 °F 64.9 °F 46% 29.98 in 10.0 mi SSW 6.9 mph - N/A   Partly Cloudy
6:56 PM 82.0 °F 84.9 °F 68.0 °F 62% 29.99 in 10.0 mi SW 4.6 mph - N/A   Partly Cloudy
7:56 PM 79.0 °F - 69.1 °F 72% 30.00 in 10.0 mi SW 3.5 mph - N/A   Partly Cloudy
8:56 PM 78.1 °F - 69.1 °F 74% 30.01 in 10.0 mi WNW 4.6 mph - N/A   Clear
9:56 PM 75.9 °F - 69.1 °F 79% 30.01 in 10.0 mi Calm Calm - N/A   Clear
10:45 PM 75.0 °F - 69.1 °F 82% 30.06 in 10.0 mi Calm Calm - N/A   Clear
10:56 PM 75.0 °F - 69.1 °F 82% 30.02 in 10.0 mi Calm Calm - N/A   Clear
11:56 PM 73.9 °F - 70.0 °F 87% 30.01 in 10.0 mi Calm Calm - N/A   Clear